Location: Владивосток
(43.1151°N, 131.8856°E)
Time: 17:54:33
(UTC+10:00)

DUCHIFAT 1 - Pass Details

Date: 03 July 2022
Orbit: 580 x 596 km, 98.0° (Epoch: 17 August)

Event Time Altitude Azimuth Distance (km) Brightness Sun altitude
Rises 04:37:12 0° 2° (N) 2,845 ? -9.4°
Reaches altitude 10° 04:39:35 10° 350° (N) 1,941 ? -9.1°
Maximum altitude 04:43:11 28° 292° (WNW) 1,133 ? -8.6°
Enters shadow 04:46:43 10° 233° (SW) 1,914 ? -8.2°
